When you browse on this site, cookies collect data to enhance your experience and personalize the content and advertising you see.
Visit our Privacy Policy to learn more. By continuing to use the site, you agree to this use of cookies and data.
  • In Österreich
  • Länderverzeichnis
  • Für 7 Tage
  • Wassertemperatur
  • Wetterkarte
  • News
  • Widgets
  • user-avatar
    Anmelden

    Stündliche Wetter Constantine

    Heute, 5 Juni, Freitag

    Zeit Temperatur Niederschläge Wind Luftdruck Luftfeuchtigkeit
    00:00 +19°C° 0 mm 1 m/S 705 mmHg 72%
    01:00 +19°C° 0.1 mm 1 m/S 705 mmHg 73%
    02:00 +19°C° 0.1 mm 1 m/S 704 mmHg 74%
    03:00 +19°C° 0.1 mm 1 m/S 704 mmHg 75%
    04:00 +18°C° 0.1 mm 3 m/S 704 mmHg 71%
    05:00 +19°C° 0.1 mm 4 m/S 705 mmHg 66%
    06:00 +19°C° 0 mm 5 m/S 705 mmHg 63%
    07:00 +20°C° 0 mm 6 m/S 706 mmHg 57%
    08:00 +21°C° 0 mm 7 m/S 706 mmHg 51%
    09:00 +22°C° 0 mm 8 m/S 706 mmHg 45%
    10:00 +23°C° 0 mm 8 m/S 707 mmHg 43%
    11:00 +23°C° 0 mm 8 m/S 707 mmHg 41%
    12:00 +24°C° 0 mm 9 m/S 708 mmHg 39%
    13:00 +24°C° 0 mm 8 m/S 708 mmHg 39%
    14:00 +23°C° 0 mm 8 m/S 708 mmHg 39%
    15:00 +23°C° 0 mm 7 m/S 708 mmHg 39%
    16:00 +22°C° 0 mm 6 m/S 708 mmHg 42%
    17:00 +21°C° 0 mm 5 m/S 708 mmHg 44%
    18:00 +20°C° 0 mm 3 m/S 708 mmHg 47%
    19:00 +19°C° 0 mm 2 m/S 708 mmHg 53%
    20:00 +19°C° 0 mm 1 m/S 708 mmHg 59%
    21:00 +15°C° 0 mm 0 m/S 709 mmHg 66%
    22:00 +15°C° 0 mm 0 m/S 708 mmHg 65%
    23:00 +15°C° 0 mm 0 m/S 708 mmHg 65%

    Morgen, 6 Juni, Samstag

    Zeit Temperatur Niederschläge Wind Luftdruck Luftfeuchtigkeit
    00:00 +15°C° 0 mm 1 m/S 708 mmHg 64%
    01:00 +14°C° 0 mm 0 m/S 708 mmHg 65%
    02:00 +14°C° 0 mm 0 m/S 708 mmHg 65%
    03:00 +13°C° 0 mm 0 m/S 708 mmHg 66%
    04:00 +15°C° 0 mm 0 m/S 708 mmHg 61%
    05:00 +18°C° 0 mm 1 m/S 708 mmHg 57%
    06:00 +19°C° 0 mm 1 m/S 709 mmHg 52%
    07:00 +21°C° 0 mm 1 m/S 709 mmHg 46%
    08:00 +23°C° 0 mm 1 m/S 709 mmHg 39%
    09:00 +25°C° 0 mm 2 m/S 710 mmHg 33%
    10:00 +26°C° 0 mm 2 m/S 710 mmHg 31%
    11:00 +28°C° 0 mm 1 m/S 710 mmHg 28%
    12:00 +29°C° 0 mm 1 m/S 710 mmHg 26%
    13:00 +30°C° 0 mm 2 m/S 710 mmHg 23%
    14:00 +31°C° 0 mm 3 m/S 709 mmHg 21%
    15:00 +33°C° 0 mm 3 m/S 709 mmHg 18%
    16:00 +31°C° 0 mm 3 m/S 709 mmHg 23%
    17:00 +29°C° 0 mm 3 m/S 708 mmHg 28%
    18:00 +28°C° 0 mm 3 m/S 708 mmHg 33%
    19:00 +26°C° 0 mm 2 m/S 708 mmHg 35%
    20:00 +25°C° 0 mm 2 m/S 708 mmHg 37%
    21:00 +24°C° 0 mm 1 m/S 708 mmHg 39%
    22:00 +24°C° 0 mm 1 m/S 707 mmHg 37%
    23:00 +24°C° 0 mm 1 m/S 707 mmHg 36%

    übermorgen, 7 Juni, Sonntag

    Zeit Temperatur Niederschläge Wind Luftdruck Luftfeuchtigkeit
    00:00 +24°C° 0 mm 1 m/S 706 mmHg 35%
    01:00 +24°C° 0 mm 1 m/S 706 mmHg 35%
    02:00 +24°C° 0 mm 1 m/S 706 mmHg 35%
    03:00 +24°C° 0 mm 1 m/S 705 mmHg 36%
    04:00 +24°C° 0.1 mm 1 m/S 705 mmHg 36%
    05:00 +25°C° 0.1 mm 1 m/S 706 mmHg 37%
    06:00 +26°C° 0.1 mm 1 m/S 706 mmHg 38%
    07:00 +27°C° 0.3 mm 1 m/S 706 mmHg 36%
    08:00 +28°C° 0.3 mm 2 m/S 707 mmHg 33%
    09:00 +30°C° 0.3 mm 3 m/S 708 mmHg 31%
    10:00 +30°C° 0.2 mm 3 m/S 707 mmHg 33%
    11:00 +30°C° 0.2 mm 3 m/S 707 mmHg 36%
    12:00 +29°C° 0.2 mm 4 m/S 707 mmHg 38%
    13:00 +29°C° 0.1 mm 5 m/S 707 mmHg 40%
    14:00 +28°C° 0.1 mm 5 m/S 707 mmHg 42%
    15:00 +28°C° 0.1 mm 6 m/S 707 mmHg 44%
    16:00 +26°C° 0.1 mm 5 m/S 707 mmHg 46%
    17:00 +25°C° 0.1 mm 4 m/S 707 mmHg 48%
    18:00 +23°C° 0.1 mm 4 m/S 707 mmHg 50%
    19:00 +22°C° 0 mm 3 m/S 707 mmHg 55%
    20:00 +21°C° 0 mm 2 m/S 708 mmHg 59%
    21:00 +21°C° 0 mm 1 m/S 708 mmHg 63%
    22:00 +20°C° 0 mm 1 m/S 707 mmHg 64%
    23:00 +20°C° 0 mm 1 m/S 707 mmHg 65%

    8 Juni, Montag

    Zeit Temperatur Niederschläge Wind Luftdruck Luftfeuchtigkeit
    00:00 +17°C° 0 mm 0 m/S 707 mmHg 66%
    01:00 +17°C° 0 mm 0 m/S 707 mmHg 66%
    02:00 +19°C° 0 mm 1 m/S 706 mmHg 67%
    03:00 +18°C° 0 mm 1 m/S 706 mmHg 67%
    04:00 +19°C° 0 mm 1 m/S 706 mmHg 64%
    05:00 +20°C° 0 mm 1 m/S 706 mmHg 61%
    06:00 +21°C° 0 mm 1 m/S 706 mmHg 58%
    07:00 +23°C° 0 mm 1 m/S 707 mmHg 52%
    08:00 +25°C° 0 mm 1 m/S 707 mmHg 46%
    09:00 +27°C° 0 mm 1 m/S 707 mmHg 40%
    10:00 +28°C° 0 mm 1 m/S 707 mmHg 36%
    11:00 +29°C° 0 mm 1 m/S 707 mmHg 32%
    12:00 +31°C° 0 mm 1 m/S 707 mmHg 28%
    13:00 +30°C° 0 mm 2 m/S 707 mmHg 31%
    14:00 +29°C° 0 mm 4 m/S 706 mmHg 35%
    15:00 +29°C° 0 mm 5 m/S 706 mmHg 39%
    16:00 +26°C° 0.4 mm 5 m/S 706 mmHg 48%
    17:00 +23°C° 0.4 mm 5 m/S 706 mmHg 57%
    18:00 +21°C° 0.4 mm 4 m/S 706 mmHg 67%
    19:00 +20°C° 0.5 mm 3 m/S 707 mmHg 71%
    20:00 +19°C° 0.5 mm 2 m/S 707 mmHg 76%
    21:00 +19°C° 0.5 mm 1 m/S 708 mmHg 81%
    22:00 +19°C° 0.2 mm 1 m/S 707 mmHg 80%
    23:00 +19°C° 0.2 mm 1 m/S 707 mmHg 79%

    9 Juni, Dienstag

    Zeit Temperatur Niederschläge Wind Luftdruck Luftfeuchtigkeit
    00:00 +17°C° 0.2 mm 0 m/S 707 mmHg 78%
    01:00 +17°C° 0 mm 0 m/S 707 mmHg 78%
    02:00 +16°C° 0 mm 0 m/S 707 mmHg 79%
    03:00 +16°C° 0 mm 0 m/S 706 mmHg 79%
    04:00 +17°C° 0 mm 0 m/S 707 mmHg 76%
    05:00 +19°C° 0 mm 1 m/S 707 mmHg 72%
    06:00 +20°C° 0 mm 1 m/S 707 mmHg 69%
    07:00 +21°C° 0 mm 1 m/S 708 mmHg 64%
    08:00 +21°C° 0 mm 2 m/S 708 mmHg 59%
    09:00 +23°C° 0 mm 2 m/S 708 mmHg 54%
    10:00 +24°C° 0 mm 3 m/S 708 mmHg 54%
    11:00 +25°C° 0 mm 3 m/S 708 mmHg 53%
    12:00 +25°C° 0 mm 3 m/S 708 mmHg 52%
    13:00 +25°C° 0.3 mm 4 m/S 708 mmHg 54%
    14:00 +25°C° 0.3 mm 5 m/S 708 mmHg 56%
    15:00 +23°C° 0.3 mm 5 m/S 708 mmHg 58%
    16:00 +22°C° 0.4 mm 5 m/S 708 mmHg 64%
    17:00 +21°C° 0.4 mm 5 m/S 708 mmHg 70%
    18:00 +19°C° 0.4 mm 4 m/S 708 mmHg 76%
    19:00 +19°C° 0.1 mm 3 m/S 709 mmHg 79%
    20:00 +18°C° 0.1 mm 2 m/S 710 mmHg 82%
    21:00 +18°C° 0.1 mm 1 m/S 710 mmHg 85%
    22:00 +18°C° 0 mm 1 m/S 710 mmHg 87%
    23:00 +16°C° 0 mm 1 m/S 710 mmHg 89%

    10 Juni, Mittwoch

    Zeit Temperatur Niederschläge Wind Luftdruck Luftfeuchtigkeit
    00:00 +15°C° 0 mm 0 m/S 710 mmHg 92%
    01:00 +14°C° 0 mm 0 m/S 709 mmHg 92%
    02:00 +14°C° 0 mm 0 m/S 709 mmHg 93%
    03:00 +14°C° 0 mm 0 m/S 709 mmHg 93%
    04:00 +15°C° 0 mm 0 m/S 709 mmHg 89%
    05:00 +15°C° 0 mm 0 m/S 709 mmHg 85%
    06:00 +16°C° 0 mm 0 m/S 709 mmHg 80%
    07:00 +18°C° 0 mm 0 m/S 710 mmHg 70%
    08:00 +20°C° 0 mm 0 m/S 710 mmHg 59%
    09:00 +22°C° 0 mm 0 m/S 711 mmHg 49%
    10:00 +25°C° 0 mm 1 m/S 711 mmHg 43%
    11:00 +26°C° 0 mm 2 m/S 711 mmHg 38%
    12:00 +27°C° 0 mm 3 m/S 711 mmHg 33%
    13:00 +27°C° 0 mm 3 m/S 710 mmHg 38%
    14:00 +26°C° 0 mm 4 m/S 710 mmHg 42%
    15:00 +25°C° 0 mm 5 m/S 710 mmHg 47%
    16:00 +23°C° 0 mm 4 m/S 710 mmHg 52%
    17:00 +22°C° 0 mm 4 m/S 710 mmHg 57%
    18:00 +21°C° 0 mm 3 m/S 710 mmHg 61%
    19:00 +20°C° 0 mm 3 m/S 710 mmHg 64%
    20:00 +19°C° 0 mm 2 m/S 710 mmHg 67%
    21:00 +19°C° 0 mm 1 m/S 710 mmHg 70%
    22:00 +19°C° 0 mm 1 m/S 710 mmHg 70%
    23:00 +19°C° 0 mm 1 m/S 710 mmHg 70%
    Mehr zeigen